Time,TemperatureF,DewpointF,PressureIn,WindDirection,WindDirectionDegrees,WindSpeedMPH,WindSpeedGustMPH,Humidity,HourlyPrecipIn,Conditions,Clouds,dailyrainin,SoftwareType,DateUTC
2013-02-04 00:03:00,28.0,22.0,29.92,NW,304,1.0,4.0,78,0.00,,,0.01,,2013-02-04 05:03:00,
2013-02-04 00:11:00,28.0,22.0,29.92,NW,304,1.0,4.0,78,0.00,,,0.01,,2013-02-04 05:11:00,
2013-02-04 00:33:00,27.0,22.0,29.93,SE,137,0.0,1.0,80,0.00,,,0.01,,2013-02-04 05:33:00,
2013-02-04 00:42:00,27.0,22.0,29.93,SE,137,0.0,1.0,80,0.00,,,0.01,,2013-02-04 05:42:00,
2013-02-04 00:52:00,27.0,22.0,29.93,SE,137,0.0,1.0,80,0.00,,,0.01,,2013-02-04 05:52:00,
2013-02-04 01:02:00,27.0,22.0,29.93,SE,137,0.0,1.0,80,0.00,,,0.01,,2013-02-04 06:02:00,
2013-02-04 01:11:00,27.0,22.0,29.93,SE,137,0.0,1.0,80,0.00,,,0.01,,2013-02-04 06:11:00,
2013-02-04 01:32:00,25.0,20.0,29.93,ESE,106,1.0,2.0,80,0.00,,,0.01,,2013-02-04 06:32:00,
2013-02-04 01:42:00,25.0,20.0,29.93,ESE,106,1.0,2.0,80,0.00,,,0.01,,2013-02-04 06:42:00,
2013-02-04 01:52:00,25.0,20.0,29.93,ESE,106,1.0,2.0,80,0.00,,,0.01,,2013-02-04 06:52:00,
2013-02-04 02:02:00,25.0,20.0,29.93,ESE,106,1.0,2.0,80,0.00,,,0.01,,2013-02-04 07:02:00,
2013-02-04 02:11:00,25.0,20.0,29.93,ESE,106,1.0,2.0,80,0.00,,,0.01,,2013-02-04 07:11:00,
2013-02-04 02:32:00,25.0,20.0,29.93,WNW,302,0.0,0.0,80,0.00,,,0.01,,2013-02-04 07:32:00,
2013-02-04 02:42:00,25.0,20.0,29.93,WNW,302,0.0,0.0,80,0.00,,,0.01,,2013-02-04 07:42:00,
2013-02-04 02:52:00,25.0,20.0,29.93,WNW,302,0.0,0.0,80,0.00,,,0.01,,2013-02-04 07:52:00,
2013-02-04 03:01:00,25.0,20.0,29.93,WNW,302,0.0,0.0,80,0.00,,,0.01,,2013-02-04 08:01:00,
2013-02-04 03:11:00,25.0,20.0,29.93,WNW,302,0.0,0.0,80,0.00,,,0.01,,2013-02-04 08:11:00,
2013-02-04 03:32:00,24.0,19.0,29.93,ESE,104,0.0,2.0,82,0.00,,,0.01,,2013-02-04 08:32:00,
2013-02-04 03:42:00,24.0,19.0,29.93,ESE,104,0.0,2.0,82,0.00,,,0.01,,2013-02-04 08:42:00,
2013-02-04 03:52:00,24.0,19.0,29.93,ESE,104,0.0,2.0,82,0.00,,,0.01,,2013-02-04 08:52:00,
2013-02-04 04:02:00,24.0,19.0,29.93,ESE,104,0.0,2.0,82,0.00,,,0.01,,2013-02-04 09:02:00,
2013-02-04 04:11:00,24.0,19.0,29.93,ESE,104,0.0,2.0,82,0.00,,,0.01,,2013-02-04 09:11:00,
2013-02-04 04:32:00,23.0,20.0,29.95,NNW,329,0.0,2.0,87,0.00,,,0.01,,2013-02-04 09:32:00,
2013-02-04 04:42:00,23.0,20.0,29.95,NNW,329,0.0,2.0,87,0.00,,,0.01,,2013-02-04 09:42:00,
2013-02-04 04:52:00,23.0,20.0,29.95,NNW,329,0.0,2.0,87,0.00,,,0.01,,2013-02-04 09:52:00,
2013-02-04 05:02:00,23.0,20.0,29.95,NNW,329,0.0,2.0,87,0.00,,,0.01,,2013-02-04 10:02:00,
2013-02-04 05:11:00,23.0,20.0,29.95,NNW,329,0.0,2.0,87,0.00,,,0.01,,2013-02-04 10:11:00,
2013-02-04 05:32:00,23.0,20.0,29.95,NNW,329,0.0,0.0,87,0.00,,,0.01,,2013-02-04 10:32:00,
2013-02-04 05:42:00,23.0,20.0,29.95,NNW,329,0.0,0.0,87,0.00,,,0.01,,2013-02-04 10:42:00,
2013-02-04 05:52:00,23.0,20.0,29.95,NNW,329,0.0,0.0,87,0.00,,,0.01,,2013-02-04 10:52:00,
2013-02-04 06:02:00,23.0,20.0,29.95,NNW,329,0.0,0.0,87,0.00,,,0.01,,2013-02-04 11:02:00,
2013-02-04 06:11:00,23.0,20.0,29.95,NNW,329,0.0,0.0,87,0.00,,,0.01,,2013-02-04 11:11:00,
2013-02-04 07:12:00,23.0,20.0,29.98,NNW,329,0.0,0.0,87,0.00,,,0.01,,2013-02-04 12:12:00,
2013-02-04 07:33:00,23.0,20.0,29.98,NNW,329,0.0,0.0,87,0.00,,,0.01,,2013-02-04 12:33:00,
2013-02-04 07:42:00,23.0,20.0,29.98,NNW,329,0.0,0.0,87,0.00,,,0.01,,2013-02-04 12:42:00,
2013-02-04 07:53:00,23.0,20.0,29.98,NNW,329,0.0,0.0,87,0.00,,,0.01,,2013-02-04 12:53:00,
2013-02-04 08:03:00,23.0,20.0,29.98,NNW,329,0.0,0.0,87,0.00,,,0.01,,2013-02-04 13:03:00,
2013-02-04 09:12:00,26.0,21.0,30.01,ESE,117,0.0,0.0,80,0.00,,,0.00,,2013-02-04 14:12:00,
2013-02-04 09:33:00,26.0,21.0,30.01,ESE,117,0.0,0.0,80,0.00,,,0.00,,2013-02-04 14:33:00,
2013-02-04 09:42:00,26.0,21.0,30.01,ESE,117,0.0,0.0,80,0.00,,,0.00,,2013-02-04 14:42:00,
2013-02-04 09:53:00,26.0,21.0,30.01,ESE,117,0.0,0.0,80,0.00,,,0.00,,2013-02-04 14:53:00,
2013-02-04 10:03:00,26.0,21.0,30.01,ESE,117,0.0,0.0,80,0.00,,,0.00,,2013-02-04 15:03:00,
2013-02-04 10:33:00,29.0,22.0,30.02,South,169,0.0,0.0,76,0.00,,,0.00,,2013-02-04 15:33:00,
2013-02-04 10:43:00,29.0,22.0,30.02,South,169,0.0,0.0,76,0.00,,,0.00,,2013-02-04 15:43:00,
2013-02-04 10:53:00,29.0,22.0,30.02,South,169,0.0,0.0,76,0.00,,,0.00,,2013-02-04 15:53:00,
2013-02-04 11:03:00,29.0,22.0,30.02,South,169,0.0,0.0,76,0.00,,,0.00,,2013-02-04 16:03:00,
2013-02-04 11:11:00,29.0,22.0,30.02,South,169,0.0,0.0,76,0.00,,,0.00,,2013-02-04 16:11:00,
2013-02-04 11:33:00,33.0,24.0,30.02,WSW,237,0.0,2.0,68,0.00,,,0.00,,2013-02-04 16:33:00,
2013-02-04 11:43:00,33.0,24.0,30.02,WSW,237,0.0,2.0,68,0.00,,,0.00,,2013-02-04 16:43:00,
2013-02-04 11:52:00,33.0,24.0,30.02,WSW,237,0.0,2.0,68,0.00,,,0.00,,2013-02-04 16:52:00,
2013-02-04 12:02:00,33.0,24.0,30.02,WSW,237,0.0,2.0,68,0.00,,,0.00,,2013-02-04 17:02:00,
2013-02-04 12:11:00,33.0,24.0,30.02,WSW,237,0.0,2.0,68,0.00,,,0.00,,2013-02-04 17:11:00,
2013-02-04 13:33:00,48.0,25.0,29.94,East,95,0.0,8.0,40,0.00,,,0.00,,2013-02-04 18:33:00,
2013-02-04 13:42:00,48.0,25.0,29.94,East,95,0.0,8.0,40,0.00,,,0.00,,2013-02-04 18:42:00,
2013-02-04 13:52:00,48.0,25.0,29.94,East,95,0.0,8.0,40,0.00,,,0.00,,2013-02-04 18:52:00,
2013-02-04 14:02:00,48.0,25.0,29.94,East,95,0.0,8.0,40,0.00,,,0.00,,2013-02-04 19:02:00,
2013-02-04 14:11:00,48.0,25.0,29.94,East,95,0.0,8.0,40,0.00,,,0.00,,2013-02-04 19:11:00,
2013-02-04 15:32:00,48.0,22.0,29.91,SE,136,2.0,10.0,36,0.00,,,0.00,,2013-02-04 20:32:00,
2013-02-04 15:42:00,48.0,22.0,29.91,SE,136,2.0,10.0,36,0.00,,,0.00,,2013-02-04 20:42:00,
2013-02-04 15:52:00,48.0,22.0,29.91,SE,136,2.0,10.0,36,0.00,,,0.00,,2013-02-04 20:52:00,
2013-02-04 16:03:00,48.0,22.0,29.91,SE,136,2.0,10.0,36,0.00,,,0.00,,2013-02-04 21:03:00,
2013-02-04 16:11:00,48.0,22.0,29.91,SE,136,2.0,10.0,36,0.00,,,0.00,,2013-02-04 21:11:00,
2013-02-04 17:33:00,44.0,23.0,29.88,ENE,76,2.0,6.0,43,0.00,,,0.00,,2013-02-04 22:33:00,
2013-02-04 17:42:00,44.0,23.0,29.88,ENE,76,2.0,6.0,43,0.00,,,0.00,,2013-02-04 22:42:00,
2013-02-04 17:52:00,44.0,23.0,29.88,ENE,76,2.0,6.0,43,0.00,,,0.00,,2013-02-04 22:52:00,
2013-02-04 18:02:00,44.0,23.0,29.88,ENE,76,2.0,6.0,43,0.00,,,0.00,,2013-02-04 23:02:00,
2013-02-04 18:11:00,44.0,23.0,29.88,ENE,76,2.0,6.0,43,0.00,,,0.00,,2013-02-04 23:11:00,
2013-02-04 18:32:00,41.0,23.0,29.90,WSW,246,1.0,3.0,49,0.00,,,0.00,,2013-02-04 23:32:00,
2013-02-04 18:42:00,41.0,23.0,29.90,WSW,246,1.0,3.0,49,0.00,,,0.00,,2013-02-04 23:42:00,
2013-02-04 18:52:00,41.0,23.0,29.90,WSW,246,1.0,3.0,49,0.00,,,0.00,,2013-02-04 23:52:00,
2013-02-04 19:02:00,41.0,23.0,29.90,WSW,246,1.0,3.0,49,0.00,,,0.00,,2013-02-05 00:02:00,
2013-02-04 19:11:00,41.0,23.0,29.90,WSW,246,1.0,3.0,49,0.00,,,0.00,,2013-02-05 00:11:00,
2013-02-04 19:12:00,39.0,25.0,29.91,ENE,78,0.0,4.0,56,0.00,,,0.00,,2013-02-05 00:12:00,
2013-02-04 19:32:00,39.0,25.0,29.91,ENE,78,0.0,4.0,56,0.00,,,0.00,,2013-02-05 00:32:00,
2013-02-04 19:42:00,39.0,25.0,29.91,ENE,78,0.0,4.0,56,0.00,,,0.00,,2013-02-05 00:42:00,
2013-02-04 19:52:00,39.0,25.0,29.91,ENE,78,0.0,4.0,56,0.00,,,0.00,,2013-02-05 00:52:00,
2013-02-04 20:02:00,39.0,25.0,29.91,ENE,78,0.0,4.0,56,0.00,,,0.00,,2013-02-05 01:02:00,
2013-02-04 20:33:00,38.0,24.0,29.91,SSW,209,1.0,6.0,56,0.00,,,0.00,,2013-02-05 01:33:00,
2013-02-04 20:42:00,38.0,24.0,29.91,SSW,209,1.0,6.0,56,0.00,,,0.00,,2013-02-05 01:42:00,
2013-02-04 20:52:00,38.0,24.0,29.91,SSW,209,1.0,6.0,56,0.00,,,0.00,,2013-02-05 01:52:00,
2013-02-04 21:01:00,38.0,24.0,29.91,SSW,209,1.0,6.0,56,0.00,,,0.00,,2013-02-05 02:01:00,
2013-02-04 21:11:00,38.0,24.0,29.91,SSW,209,1.0,6.0,56,0.00,,,0.00,,2013-02-05 02:11:00,
2013-02-04 21:32:00,36.0,24.0,29.91,East,85,0.0,6.0,62,0.00,,,0.00,,2013-02-05 02:32:00,
2013-02-04 21:42:00,36.0,24.0,29.91,East,85,0.0,6.0,62,0.00,,,0.00,,2013-02-05 02:42:00,
2013-02-04 21:52:00,36.0,24.0,29.91,East,85,0.0,6.0,62,0.00,,,0.00,,2013-02-05 02:52:00,
2013-02-04 22:02:00,36.0,24.0,29.91,East,85,0.0,6.0,62,0.00,,,0.00,,2013-02-05 03:02:00,
2013-02-04 22:11:00,36.0,24.0,29.91,East,85,0.0,6.0,62,0.00,,,0.00,,2013-02-05 03:11:00,
2013-02-04 22:32:00,36.0,25.0,29.93,East,85,0.0,4.0,65,0.00,,,0.00,,2013-02-05 03:32:00,
2013-02-04 22:42:00,36.0,25.0,29.93,East,85,0.0,4.0,65,0.00,,,0.00,,2013-02-05 03:42:00,
2013-02-04 22:52:00,36.0,25.0,29.93,East,85,0.0,4.0,65,0.00,,,0.00,,2013-02-05 03:52:00,
2013-02-04 23:01:00,36.0,25.0,29.93,East,85,0.0,4.0,65,0.00,,,0.00,,2013-02-05 04:01:00,
2013-02-04 23:11:00,36.0,25.0,29.93,East,85,0.0,4.0,65,0.00,,,0.00,,2013-02-05 04:11:00,
2013-02-04 23:32:00,36.0,26.0,29.89,ESE,117,0.0,2.0,66,0.00,,,0.00,,2013-02-05 04:32:00,
2013-02-04 23:42:00,36.0,26.0,29.89,ESE,117,0.0,2.0,66,0.00,,,0.00,,2013-02-05 04:42:00,
2013-02-04 23:52:00,36.0,26.0,29.89,ESE,117,0.0,2.0,66,0.00,,,0.00,,2013-02-05 04:52:00,